This demonstration page uses our WeatherBlox Daily Observations layout. Learn more.

Left ArrowRight Arrow

38.83388, -104.82136

Hourly Observations for April 23, 2022

Temp ( °F °C ) Dew Point ( °F °C ) Humidity (%) Winds ( mph kmh ) Pressure ( in mb ) Visibility ( mi km ) Precip ( " mm )
12:00 am 00:00 Clear 45 7 18 -8 34 34 SE 14 22 29.16 987 10 16 0.00 0.00
12:28 am 00:28 Mostly Clear 43 6 16 -9 34 34 ENE 13 20 29.13 986 10 16 0.00 0.00
12:53 am 00:53 Clear 43 6 18 -8 36 36 NW 21 33 29.15 987 10 16 0.00 0.00
12:54 am 00:54 Clear 43 6 18 -8 36 36 N 17 28 29.15 987 10 16 0.00 0.00
12:55 am 00:55 Clear 43 6 18 -8 36 36 E 13 20 29.15 987 10 16 0.00 0.00
12:57 am 00:57 Clear 43 6 18 -8 36 36 SW 24 39 29.14 987 10 16 0.00 0.00
12:58 am 00:58 Clear 42 5.8 17 -8.1 36 36 W 28 44 29.14 987 10 16 0.00 0.00
12:59 am 00:59 Clear 43 6 18 -8 36 36 WSW 25 41 29.17 988 10 16 0.00 0.00
1:05 am 01:05 Clear 43 6 18 -8 36 36 W 18 30 29.16 987 10 16 0.00 0.00
1:07 am 01:07 Clear 43 6 18 -8 36 36 SW 26 43 29.16 987 10 16 0.00 0.00
1:08 am 01:08 Clear 43 6 18 -8 36 36 SSE 17 28 29.15 987 10 16 0.00 0.00
1:09 am 01:09 Clear 43 6 18 -8 36 36 S 14 22 29.14 987 10 16 0.00 0.00
1:11 am 01:11 Clear 43 6 18 -8 36 36 SW 17 28 29.15 987 10 16 0.00 0.00
1:17 am 01:17 Clear 43 6 16 -9 34 34 W 14 22 29.15 987 10 16 0.00 0.00
1:20 am 01:20 Mostly Clear 43 6 16 -9 34 34 SW 28 44 29.15 987 10 16 0.00 0.00
1:27 am 01:27 Partly Cloudy 43 6 16 -9 34 34 WNW 12 19 29.14 987 10 16 0.00 0.00
1:30 am 01:30 Mostly Cloudy 43 6 16 -9 34 34 NNE 12 19 29.14 987 10 16 0.00 0.00
1:35 am 01:35 Mostly Cloudy 43 6 16 -9 34 34 ENE 17 28 29.14 987 10 16 0.00 0.00
1:58 am 01:58 Partly Cloudy 42 5.4 15 -9.2 34 34 E 22 35 29.07 984 10 16 0.00 0.00
2:12 am 02:12 Mostly Clear 41 5 14 -10 33 33 NE 13 20 29.05 984 10 16 0.00 0.00
2:58 am 02:58 undefined N/A N/A N/A undefined N/A N/A N/A 0.00 0.00
3:23 am 03:23 undefined 43 6 14 -10 31 31 E 15 24 29.11 986 10 16 0.00 0.00
3:45 am 03:45 Clear 43 6 14 -10 31 31 E 15 24 29.08 985 10 16 0.00 0.00
3:58 am 03:58 Clear 43 6 13 -10.3 30 30 E 5 7 29.09 985 10 16 0.00 0.00
4:19 am 04:19 Clear 45 7 12 -11 27 27 E 18 30 29.10 985 10 16 0.00 0.00
4:58 am 04:58 Clear 43 6.1 13 -10.6 29 29 ENE 8 13 29.14 987 10 16 0.00 0.00
5:58 am 05:58 Clear 43 6 13 -10.7 29 29 ESE 7 11 29.14 987 10 16 0.00 0.00
6:58 am 06:58 Mostly Sunny 45 7.4 12 -10.9 26 26 Calm 29.21 989 10 16 0.00 0.00
7:58 am 07:58 Mostly Sunny 47 8.6 13 -10.3 25 25 NE 3 6 29.26 991 10 16 0.00 0.00
8:58 am 08:58 Sunny 52 11 12 -11.1 20 20 NE 14 22 29.30 992 10 16 0.00 0.00
9:58 am 09:58 Sunny 54 12.2 7 -13.7 15 15 ENE 13 20 29.34 994 10 16 0.00 0.00
10:40 am 10:40 Sunny 54 12 7 -14 15 15 WNW 12 19 29.38 995 10 16 0.00 0.00
10:58 am 10:58 Sunny 55 12.9 5 -14.9 13 13 NW 6 9 29.35 994 10 16 0.00 0.00
11:58 am 11:58 Sunny 56 13.1 6 -14.7 13 13 NW 13 20 29.43 997 10 16 0.00 0.00
12:35 pm 12:35 Partly Cloudy 55 13 9 -13 15 15 WNW 14 22 29.44 997 10 16 0.00 0.00
12:55 pm 12:55 Mostly Cloudy 54 12 7 -14 15 15 WNW 16 26 29.44 997 10 16 0.00 0.00
12:58 pm 12:58 Mostly Cloudy 54 12.1 7 -13.8 15 15 W 14 22 29.44 997 10 16 0.00 0.00
12:59 pm 12:59 Mostly Cloudy 54 12 7 -14 15 15 NW 16 26 29.43 997 10 16 0.00 0.00
1:58 pm 13:58 Mostly Cloudy 53 11.8 5 -14.9 14 14 NW 16 26 29.45 997 10 16 0.00 0.00
2:25 pm 14:25 Partly Cloudy 57 14 5 -15 12 12 W 24 39 29.48 998 10 16 0.00 0.00
2:55 pm 14:55 Mostly Cloudy 57 14 5 -15 12 12 WNW 22 35 29.60 1002 10 16 0.00 0.00
2:58 pm 14:58 Mostly Cloudy 58 14.3 4 -15.8 11 11 WNW 17 28 29.52 1000 10 16 0.00 0.00
3:11 pm 15:11 Mostly Cloudy 57 14 3 -16 11 11 NNW 17 28 29.52 1000 10 16 0.00 0.00
3:58 pm 15:58 Cloudy 57 13.7 6 -14.3 13 13 NW 10 17 29.54 1001 10 16 0.00 0.00
4:58 pm 16:58 Cloudy 54 12 11 -11.6 18 18 NNW 6 9 29.55 1001 10 16 0.00 0.00
5:58 pm 17:58 Cloudy 51 10.7 14 -10.2 22 22 NW 10 17 29.52 1000 10 16 0.00 0.00
6:58 pm 18:58 Cloudy 50 10 15 -9.7 24 24 WNW 9 15 29.53 1000 10 16 0.00 0.00
7:58 pm 19:58 Mostly Cloudy 48 9.1 15 -9.4 26 26 W 5 7 29.54 1000 10 16 0.00 0.00
8:58 pm 20:58 Cloudy 47 8.3 14 -10.1 26 26 S 6 9 29.53 1000 10 16 0.00 0.00
9:58 pm 21:58 Partly Cloudy 45 7.1 14 -10.2 28 28 Calm 29.53 1000 10 16 0.00 0.00
10:58 pm 22:58 Clear 45 7.1 9 -12.7 23 23 SE 6 9 29.55 1001 10 16 0.00 0.00
11:58 pm 23:58 Partly Cloudy 42 5.6 14 -10.2 31 31 SSE 6 9 29.57 1001 10 16 0.00 0.00

Powered by AerisWeather